Time,TemperatureF,DewpointF,PressureIn,WindDirection,WindDirectionDegrees,WindSpeedMPH,WindSpeedGustMPH,Humidity,HourlyPrecipIn,Conditions,Clouds,dailyrainin,SoftwareType,DateUTC
2013-07-14 00:01:00,69.8,64.1,30.05,North,5,0.0,3.0,82,0.00,,---,0.00,VWS V14.00,2013-07-14 04:01:00,
2013-07-14 00:06:00,69.8,64.1,30.05,West,266,0.0,3.0,82,0.00,,---,0.00,VWS V14.00,2013-07-14 04:06:00,
2013-07-14 00:11:00,69.7,64.0,30.05,West,265,0.0,0.0,82,0.00,,---,0.00,VWS V14.00,2013-07-14 04:11:00,
2013-07-14 00:16:00,69.6,63.9,30.05,West,265,0.0,1.0,82,0.00,,---,0.00,VWS V14.00,2013-07-14 04:16:00,
2013-07-14 00:21:00,69.5,64.1,30.05,West,266,0.0,1.0,83,0.00,,---,0.00,VWS V14.00,2013-07-14 04:21:00,
2013-07-14 00:26:00,69.5,64.1,30.05,West,266,0.0,1.0,83,0.00,,---,0.00,VWS V14.00,2013-07-14 04:26:00,
2013-07-14 00:31:00,69.4,64.0,30.05,West,266,0.0,1.0,83,0.00,,---,0.00,VWS V14.00,2013-07-14 04:31:00,
2013-07-14 00:36:00,69.4,64.0,30.05,West,266,0.0,1.0,83,0.00,,---,0.00,VWS V14.00,2013-07-14 04:36:00,
2013-07-14 00:41:00,69.4,64.4,30.05,West,265,0.0,0.0,84,0.00,,---,0.00,VWS V14.00,2013-07-14 04:41:00,
2013-07-14 00:46:00,69.4,64.4,30.05,West,266,0.0,0.0,84,0.00,,---,0.00,VWS V14.00,2013-07-14 04:46:00,
2013-07-14 00:51:00,69.4,64.7,30.04,West,266,0.0,0.0,85,0.00,,---,0.00,VWS V14.00,2013-07-14 04:51:00,
2013-07-14 00:56:00,69.2,64.5,30.05,West,265,0.0,0.0,85,0.00,,---,0.00,VWS V14.00,2013-07-14 04:56:00,
2013-07-14 01:01:00,69.2,64.5,30.05,West,265,0.0,0.0,85,0.00,,---,0.00,VWS V14.00,2013-07-14 05:01:00,
2013-07-14 01:06:00,69.1,64.7,30.04,West,266,0.0,0.0,86,0.00,,---,0.00,VWS V14.00,2013-07-14 05:06:00,
2013-07-14 01:11:00,68.9,64.6,30.05,West,265,0.0,0.0,86,0.00,,---,0.00,VWS V14.00,2013-07-14 05:11:00,
2013-07-14 01:16:00,68.8,64.4,30.05,West,265,0.0,1.0,86,0.00,,---,0.00,VWS V14.00,2013-07-14 05:16:00,
2013-07-14 01:21:00,68.7,64.3,30.05,West,266,0.0,1.0,86,0.00,,---,0.00,VWS V14.00,2013-07-14 05:21:00,
2013-07-14 01:26:00,68.6,64.2,30.05,West,266,0.0,1.0,86,0.00,,---,0.00,VWS V14.00,2013-07-14 05:26:00,
2013-07-14 01:31:00,68.7,64.7,30.04,West,265,0.0,1.0,87,0.00,,---,0.00,VWS V14.00,2013-07-14 05:31:00,
2013-07-14 01:36:00,68.7,64.7,30.04,West,266,0.0,1.0,87,0.00,,---,0.00,VWS V14.00,2013-07-14 05:36:00,
2013-07-14 01:41:00,68.7,64.7,30.05,West,265,0.0,0.0,87,0.00,,---,0.00,VWS V14.00,2013-07-14 05:41:00,
2013-07-14 01:46:00,68.7,64.7,30.05,West,266,0.0,0.0,87,0.00,,---,0.00,VWS V14.00,2013-07-14 05:46:00,
2013-07-14 01:51:00,68.7,65.0,30.05,West,266,0.0,0.0,88,0.00,,---,0.00,VWS V14.00,2013-07-14 05:51:00,
2013-07-14 01:56:00,68.6,64.9,30.05,West,265,0.0,0.0,88,0.00,,---,0.00,VWS V14.00,2013-07-14 05:56:00,
2013-07-14 02:01:00,68.6,64.9,30.05,West,265,0.0,0.0,88,0.00,,---,0.00,VWS V14.00,2013-07-14 06:01:00,
2013-07-14 02:06:00,68.6,64.9,30.05,West,266,0.0,0.0,88,0.00,,---,0.00,VWS V14.00,2013-07-14 06:06:00,
2013-07-14 02:11:00,68.5,64.8,30.04,West,265,0.0,0.0,88,0.00,,---,0.00,VWS V14.00,2013-07-14 06:11:00,
2013-07-14 02:16:00,68.5,64.8,30.04,West,266,0.0,0.0,88,0.00,,---,0.00,VWS V14.00,2013-07-14 06:16:00,
2013-07-14 02:21:00,68.3,64.9,30.05,West,266,0.0,0.0,89,0.00,,---,0.00,VWS V14.00,2013-07-14 06:21:00,
2013-07-14 02:26:00,68.2,64.8,30.05,West,266,0.0,0.0,89,0.00,,---,0.00,VWS V14.00,2013-07-14 06:26:00,
2013-07-14 02:31:00,68.1,64.7,30.05,West,266,0.0,0.0,89,0.00,,---,0.00,VWS V14.00,2013-07-14 06:31:00,
2013-07-14 02:36:00,68.1,64.7,30.04,West,265,0.0,0.0,89,0.00,,---,0.00,VWS V14.00,2013-07-14 06:36:00,
2013-07-14 02:41:00,68.0,64.6,30.05,West,266,0.0,0.0,89,0.00,,---,0.00,VWS V14.00,2013-07-14 06:41:00,
2013-07-14 02:46:00,67.9,64.5,30.04,West,266,0.0,0.0,89,0.00,,---,0.00,VWS V14.00,2013-07-14 06:46:00,
2013-07-14 02:51:00,67.8,64.4,30.04,West,266,0.0,0.0,89,0.00,,---,0.00,VWS V14.00,2013-07-14 06:51:00,
2013-07-14 02:56:00,67.7,64.7,30.04,West,266,0.0,0.0,90,0.00,,---,0.00,VWS V14.00,2013-07-14 06:56:00,
2013-07-14 03:01:00,67.7,64.7,30.04,West,265,0.0,0.0,90,0.00,,---,0.00,VWS V14.00,2013-07-14 07:01:00,
2013-07-14 03:06:00,67.6,64.9,30.04,West,265,0.0,0.0,91,0.00,,---,0.00,VWS V14.00,2013-07-14 07:06:00,
2013-07-14 03:11:00,67.5,64.8,30.04,West,266,0.0,0.0,91,0.00,,---,0.00,VWS V14.00,2013-07-14 07:11:00,
2013-07-14 03:16:00,67.4,64.7,30.04,West,265,0.0,0.0,91,0.00,,---,0.00,VWS V14.00,2013-07-14 07:16:00,
2013-07-14 03:21:00,67.3,64.6,30.04,West,266,0.0,1.0,91,0.00,,---,0.00,VWS V14.00,2013-07-14 07:21:00,
2013-07-14 03:26:00,67.2,64.5,30.04,West,266,0.0,1.0,91,0.00,,---,0.00,VWS V14.00,2013-07-14 07:26:00,
2013-07-14 03:31:00,67.1,64.4,30.04,West,266,0.0,1.0,91,0.00,,---,0.00,VWS V14.00,2013-07-14 07:31:00,
2013-07-14 03:36:00,67.0,64.3,30.04,West,266,0.0,1.0,91,0.00,,---,0.00,VWS V14.00,2013-07-14 07:36:00,
2013-07-14 03:41:00,67.1,64.4,30.04,West,265,0.0,0.0,91,0.00,,---,0.00,VWS V14.00,2013-07-14 07:41:00,
2013-07-14 03:46:00,67.1,64.7,30.04,West,265,0.0,0.0,92,0.00,,---,0.00,VWS V14.00,2013-07-14 07:46:00,
2013-07-14 03:51:00,67.0,64.6,30.04,West,266,0.0,0.0,92,0.00,,---,0.00,VWS V14.00,2013-07-14 07:51:00,
2013-07-14 03:56:00,67.1,64.7,30.04,West,266,0.0,0.0,92,0.00,,---,0.00,VWS V14.00,2013-07-14 07:56:00,
2013-07-14 04:01:00,67.1,64.7,30.05,West,266,0.0,0.0,92,0.00,,---,0.00,VWS V14.00,2013-07-14 08:01:00,
2013-07-14 04:06:00,67.0,64.6,30.05,West,266,0.0,0.0,92,0.00,,---,0.00,VWS V14.00,2013-07-14 08:06:00,
2013-07-14 04:11:00,67.0,64.6,30.05,West,266,0.0,0.0,92,0.00,,---,0.00,VWS V14.00,2013-07-14 08:11:00,
2013-07-14 04:16:00,67.1,64.7,30.05,West,265,0.0,0.0,92,0.00,,---,0.00,VWS V14.00,2013-07-14 08:16:00,
2013-07-14 04:21:00,67.1,65.0,30.04,West,265,0.0,0.0,93,0.00,,---,0.00,VWS V14.00,2013-07-14 08:21:00,
2013-07-14 04:26:00,67.0,64.6,30.05,West,265,0.0,1.0,92,0.00,,---,0.00,VWS V14.00,2013-07-14 08:26:00,
2013-07-14 04:31:00,67.0,64.6,30.05,West,266,0.0,1.0,92,0.00,,---,0.00,VWS V14.00,2013-07-14 08:31:00,
2013-07-14 04:36:00,67.0,64.6,30.04,West,266,0.0,1.0,92,0.00,,---,0.00,VWS V14.00,2013-07-14 08:36:00,
2013-07-14 04:41:00,67.1,64.7,30.04,West,266,0.0,1.0,92,0.00,,---,0.00,VWS V14.00,2013-07-14 08:41:00,
2013-07-14 04:46:00,67.2,64.8,30.04,West,265,0.0,1.0,92,0.00,,---,0.00,VWS V14.00,2013-07-14 08:46:00,
2013-07-14 04:51:00,67.2,64.8,30.04,West,266,0.0,1.0,92,0.00,,---,0.00,VWS V14.00,2013-07-14 08:51:00,
2013-07-14 04:56:00,67.3,64.9,30.05,West,261,0.0,2.0,92,0.00,,---,0.00,VWS V14.00,2013-07-14 08:56:00,
2013-07-14 05:01:00,67.3,64.9,30.05,West,261,0.0,2.0,92,0.00,,---,0.00,VWS V14.00,2013-07-14 09:01:00,
2013-07-14 05:06:00,67.3,64.9,30.06,West,261,0.0,2.0,92,0.00,,---,0.00,VWS V14.00,2013-07-14 09:06:00,
2013-07-14 05:11:00,67.2,64.8,30.06,West,261,0.0,0.0,92,0.00,,---,0.00,VWS V14.00,2013-07-14 09:11:00,
2013-07-14 05:16:00,67.2,64.8,30.06,West,261,0.0,0.0,92,0.00,,---,0.00,VWS V14.00,2013-07-14 09:16:00,
2013-07-14 05:21:00,67.1,64.7,30.07,West,261,0.0,0.0,92,0.00,,---,0.00,VWS V14.00,2013-07-14 09:21:00,
2013-07-14 05:26:00,67.1,65.0,30.07,West,261,0.0,2.0,93,0.01,,---,0.01,VWS V14.00,2013-07-14 09:26:00,
2013-07-14 05:31:00,67.0,64.9,30.07,WNW,291,0.0,4.0,93,0.01,,---,0.01,VWS V14.00,2013-07-14 09:31:00,
2013-07-14 05:36:00,67.0,64.9,30.07,WNW,292,0.0,4.0,93,0.01,,---,0.01,VWS V14.00,2013-07-14 09:36:00,
2013-07-14 05:41:00,66.9,65.1,30.07,WNW,292,0.0,1.0,94,0.01,,---,0.01,VWS V14.00,2013-07-14 09:41:00,
2013-07-14 05:46:00,66.8,65.0,30.07,WNW,292,0.0,1.0,94,0.01,,---,0.01,VWS V14.00,2013-07-14 09:46:00,
2013-07-14 05:51:00,66.7,64.9,30.07,South,190,0.0,1.0,94,0.01,,---,0.01,VWS V14.00,2013-07-14 09:51:00,
2013-07-14 05:56:00,66.6,64.8,30.07,South,190,0.0,1.0,94,0.01,,---,0.01,VWS V14.00,2013-07-14 09:56:00,
2013-07-14 06:01:00,66.5,64.7,30.07,South,190,0.0,2.0,94,0.01,,---,0.01,VWS V14.00,2013-07-14 10:01:00,
2013-07-14 06:06:00,66.4,64.9,30.08,South,190,0.0,2.0,95,0.01,,---,0.01,VWS V14.00,2013-07-14 10:06:00,
2013-07-14 06:11:00,66.4,64.9,30.08,South,190,0.0,0.0,95,0.01,,---,0.01,VWS V14.00,2013-07-14 10:11:00,
2013-07-14 06:16:00,66.4,64.9,30.08,South,190,1.0,1.0,95,0.01,,---,0.01,VWS V14.00,2013-07-14 10:16:00,
2013-07-14 06:21:00,66.4,64.9,30.09,South,190,0.0,2.0,95,0.01,,---,0.01,VWS V14.00,2013-07-14 10:21:00,
2013-07-14 06:25:00,66.4,65.2,30.09,South,190,0.0,2.0,96,0.01,,---,0.01,VWS V14.00,2013-07-14 10:25:00,
2013-07-14 06:30:00,66.4,65.2,30.09,South,190,0.0,2.0,96,0.01,,---,0.01,VWS V14.00,2013-07-14 10:30:00,
2013-07-14 06:35:00,66.3,65.1,30.09,South,190,0.0,2.0,96,0.01,,---,0.01,VWS V14.00,2013-07-14 10:35:00,
2013-07-14 06:40:00,66.3,65.1,30.09,South,190,0.0,0.0,96,0.00,,---,0.01,VWS V14.00,2013-07-14 10:40:00,
2013-07-14 06:45:00,66.3,65.1,30.10,South,190,0.0,0.0,96,0.00,,---,0.01,VWS V14.00,2013-07-14 10:45:00,
2013-07-14 06:50:00,66.3,65.1,30.10,South,190,0.0,0.0,96,0.00,,---,0.01,VWS V14.00,2013-07-14 10:50:00,
2013-07-14 06:55:00,66.2,65.0,30.10,South,190,0.0,0.0,96,0.00,,---,0.01,VWS V14.00,2013-07-14 10:55:00,
2013-07-14 07:00:00,66.2,65.0,30.10,South,190,0.0,1.0,96,0.00,,---,0.01,VWS V14.00,2013-07-14 11:00:00,
2013-07-14 07:05:00,66.1,64.9,30.10,South,190,0.0,1.0,96,0.00,,---,0.01,VWS V14.00,2013-07-14 11:05:00,
2013-07-14 07:10:00,66.1,64.9,30.11,South,190,0.0,0.0,96,0.00,,---,0.01,VWS V14.00,2013-07-14 11:10:00,
2013-07-14 07:15:00,66.1,64.9,30.11,South,190,0.0,0.0,96,0.00,,---,0.01,VWS V14.00,2013-07-14 11:15:00,
2013-07-14 07:20:00,66.2,65.3,30.11,South,190,0.0,0.0,97,0.00,,---,0.01,VWS V14.00,2013-07-14 11:20:00,
2013-07-14 07:25:00,66.2,65.3,30.11,South,190,0.0,0.0,97,0.00,,---,0.01,VWS V14.00,2013-07-14 11:25:00,
2013-07-14 07:30:00,66.1,65.2,30.11,South,190,0.0,0.0,97,0.00,,---,0.01,VWS V14.00,2013-07-14 11:30:00,
2013-07-14 07:35:00,66.2,65.3,30.12,South,190,0.0,0.0,97,0.00,,---,0.01,VWS V14.00,2013-07-14 11:35:00,
2013-07-14 07:40:00,66.3,65.4,30.12,SSE,163,0.0,0.0,97,0.00,,---,0.01,VWS V14.00,2013-07-14 11:40:00,
2013-07-14 07:45:00,66.4,65.5,30.12,SSE,163,0.0,0.0,97,0.00,,---,0.01,VWS V14.00,2013-07-14 11:45:00,
2013-07-14 07:50:00,66.5,65.6,30.11,SSE,163,0.0,0.0,97,0.00,,---,0.01,VWS V14.00,2013-07-14 11:50:00,
2013-07-14 07:55:00,66.7,66.1,30.11,SSE,163,0.0,0.0,98,0.00,,---,0.01,VWS V14.00,2013-07-14 11:55:00,
2013-07-14 08:00:00,66.8,66.2,30.12,SSE,163,0.0,1.0,98,0.00,,---,0.01,VWS V14.00,2013-07-14 12:00:00,
2013-07-14 08:05:00,66.8,65.9,30.12,SSE,164,1.0,2.0,97,0.00,,---,0.01,VWS V14.00,2013-07-14 12:05:00,
2013-07-14 08:10:00,66.8,65.9,30.12,SSE,165,0.0,0.0,97,0.00,,---,0.01,VWS V14.00,2013-07-14 12:10:00,
2013-07-14 08:15:00,66.7,66.1,30.13,SSE,165,0.0,0.0,98,0.00,,---,0.01,VWS V14.00,2013-07-14 12:15:00,
2013-07-14 08:20:00,66.8,66.2,30.13,SSE,165,0.0,0.0,98,0.00,,---,0.01,VWS V14.00,2013-07-14 12:20:00,
2013-07-14 08:25:00,66.8,66.2,30.13,SSE,164,0.0,0.0,98,0.01,,---,0.02,VWS V14.00,2013-07-14 12:25:00,
2013-07-14 08:30:00,66.9,66.3,30.13,SSE,165,0.0,0.0,98,0.01,,---,0.02,VWS V14.00,2013-07-14 12:30:00,
2013-07-14 08:35:00,67.0,66.4,30.14,SSE,165,0.0,0.0,98,0.02,,---,0.03,VWS V14.00,2013-07-14 12:35:00,
2013-07-14 08:40:00,66.9,66.3,30.14,WNW,286,0.0,0.0,98,0.03,,---,0.04,VWS V14.00,2013-07-14 12:40:00,
2013-07-14 08:45:00,67.0,66.4,30.14,WNW,285,0.0,0.0,98,0.04,,---,0.05,VWS V14.00,2013-07-14 12:45:00,
2013-07-14 08:50:00,67.0,66.4,30.14,NW,309,0.0,2.0,98,0.04,,---,0.05,VWS V14.00,2013-07-14 12:50:00,
2013-07-14 08:55:00,67.0,66.4,30.15,NW,313,0.0,4.0,98,0.04,,---,0.05,VWS V14.00,2013-07-14 12:55:00,
2013-07-14 09:00:00,67.1,66.5,30.14,NW,309,1.0,4.0,98,0.04,,---,0.05,VWS V14.00,2013-07-14 13:00:00,
2013-07-14 09:05:00,67.2,66.6,30.15,SSW,202,0.0,4.0,98,0.05,,---,0.06,VWS V14.00,2013-07-14 13:05:00,
2013-07-14 09:10:00,67.3,66.7,30.15,WNW,300,1.0,3.0,98,0.05,,---,0.06,VWS V14.00,2013-07-14 13:10:00,
2013-07-14 09:15:00,67.4,66.8,30.14,WNW,298,0.0,3.0,98,0.05,,---,0.06,VWS V14.00,2013-07-14 13:15:00,
2013-07-14 09:20:00,67.5,66.9,30.14,WSW,254,0.0,3.0,98,0.05,,---,0.06,VWS V14.00,2013-07-14 13:20:00,
2013-07-14 09:25:00,67.6,67.0,30.15,WSW,254,0.0,3.0,98,0.05,,---,0.06,VWS V14.00,2013-07-14 13:25:00,
2013-07-14 09:30:00,67.7,67.1,30.15,WSW,254,0.0,3.0,98,0.05,,---,0.06,VWS V14.00,2013-07-14 13:30:00,
2013-07-14 09:35:00,67.9,67.3,30.15,WSW,254,0.0,3.0,98,0.05,,---,0.06,VWS V14.00,2013-07-14 13:35:00,
2013-07-14 09:40:00,68.0,67.4,30.14,WSW,253,0.0,3.0,98,0.02,,---,0.06,VWS V14.00,2013-07-14 13:40:00,
2013-07-14 09:45:00,68.0,67.4,30.15,NW,322,0.0,5.0,98,0.02,,---,0.06,VWS V14.00,2013-07-14 13:45:00,
2013-07-14 09:50:00,68.1,67.5,30.14,NW,322,0.0,5.0,98,0.02,,---,0.06,VWS V14.00,2013-07-14 13:50:00,
2013-07-14 09:55:00,68.3,67.7,30.14,NW,321,0.0,5.0,98,0.02,,---,0.06,VWS V14.00,2013-07-14 13:55:00,
2013-07-14 10:00:00,68.4,67.8,30.14,NW,318,0.0,5.0,98,0.02,,---,0.06,VWS V14.00,2013-07-14 14:00:00,
2013-07-14 10:05:00,68.6,68.0,30.14,NNW,327,3.0,7.0,98,0.02,,---,0.06,VWS V14.00,2013-07-14 14:05:00,
2013-07-14 10:10:00,68.7,68.1,30.15,West,271,0.0,4.0,98,0.00,,---,0.06,VWS V14.00,2013-07-14 14:10:00,
2013-07-14 10:15:00,68.9,68.3,30.15,ESE,118,0.0,4.0,98,0.00,,---,0.06,VWS V14.00,2013-07-14 14:15:00,
2013-07-14 10:20:00,68.9,68.0,30.15,SW,217,1.0,4.0,97,0.00,,---,0.06,VWS V14.00,2013-07-14 14:20:00,
2013-07-14 10:25:00,69.0,68.1,30.15,SSW,197,1.0,4.0,97,0.00,,---,0.06,VWS V14.00,2013-07-14 14:25:00,
2013-07-14 10:30:00,69.1,68.2,30.15,SE,132,0.0,4.0,97,0.00,,---,0.06,VWS V14.00,2013-07-14 14:30:00,
2013-07-14 10:35:00,69.2,68.3,30.15,WSW,249,0.0,5.0,97,0.00,,---,0.06,VWS V14.00,2013-07-14 14:35:00,
2013-07-14 10:40:00,69.5,68.3,30.14,WNW,303,0.0,4.0,96,0.00,,---,0.06,VWS V14.00,2013-07-14 14:40:00,
2013-07-14 10:45:00,69.7,68.5,30.14,WSW,245,0.0,7.0,96,0.00,,---,0.06,VWS V14.00,2013-07-14 14:45:00,
2013-07-14 10:50:00,70.2,69.0,30.14,WSW,256,0.0,7.0,96,0.00,,---,0.06,VWS V14.00,2013-07-14 14:50:00,
2013-07-14 10:55:00,70.9,69.4,30.14,SSW,206,0.0,7.0,95,0.00,,---,0.06,VWS V14.00,2013-07-14 14:55:00,
2013-07-14 11:00:00,71.8,70.3,30.14,SSE,155,0.0,7.0,95,0.00,,---,0.06,VWS V14.00,2013-07-14 15:00:00,
2013-07-14 11:05:00,72.6,70.5,30.14,SW,230,4.0,7.0,93,0.00,,---,0.06,VWS V14.00,2013-07-14 15:05:00,
2013-07-14 11:10:00,73.3,69.9,30.14,NW,311,1.0,6.0,89,0.00,,---,0.06,VWS V14.00,2013-07-14 15:10:00,
2013-07-14 11:15:00,73.9,69.8,30.13,WNW,294,2.0,7.0,87,0.00,,---,0.06,VWS V14.00,2013-07-14 15:15:00,
2013-07-14 11:20:00,74.2,69.8,30.14,West,272,2.0,7.0,86,0.00,,---,0.06,VWS V14.00,2013-07-14 15:20:00,
2013-07-14 11:25:00,74.5,69.7,30.14,WSW,240,0.0,7.0,85,0.00,,---,0.06,VWS V14.00,2013-07-14 15:25:00,
2013-07-14 11:30:00,74.8,70.3,30.14,WSW,246,0.0,9.0,86,0.00,,---,0.06,VWS V14.00,2013-07-14 15:30:00,
2013-07-14 11:35:00,74.9,70.1,30.15,WSW,254,0.0,9.0,85,0.00,,---,0.06,VWS V14.00,2013-07-14 15:35:00,
2013-07-14 11:40:00,75.0,69.8,30.15,SW,236,0.0,5.0,84,0.00,,---,0.06,VWS V14.00,2013-07-14 15:40:00,
2013-07-14 11:45:00,75.0,69.8,30.15,WSW,251,0.0,5.0,84,0.00,,---,0.06,VWS V14.00,2013-07-14 15:45:00,
2013-07-14 11:50:00,74.8,69.7,30.14,WSW,246,2.0,6.0,84,0.00,,---,0.06,VWS V14.00,2013-07-14 15:50:00,
2013-07-14 11:55:00,74.4,69.3,30.14,West,269,4.0,11.0,84,0.00,,---,0.06,VWS V14.00,2013-07-14 15:55:00,
2013-07-14 12:00:00,74.3,69.2,30.14,WSW,252,0.0,11.0,84,0.00,,---,0.06,VWS V14.00,2013-07-14 16:00:00,
2013-07-14 12:05:00,74.1,69.3,30.15,SSW,210,1.0,11.0,85,0.00,,---,0.06,VWS V14.00,2013-07-14 16:05:00,
2013-07-14 12:10:00,73.9,69.4,30.15,SW,217,0.0,5.0,86,0.00,,---,0.06,VWS V14.00,2013-07-14 16:10:00,
2013-07-14 12:15:00,74.1,69.7,30.15,SW,215,0.0,7.0,86,0.00,,---,0.06,VWS V14.00,2013-07-14 16:15:00,
2013-07-14 12:20:00,74.0,69.6,30.15,West,267,0.0,9.0,86,0.00,,---,0.06,VWS V14.00,2013-07-14 16:20:00,
2013-07-14 12:25:00,74.1,69.7,30.16,SSW,196,2.0,9.0,86,0.00,,---,0.06,VWS V14.00,2013-07-14 16:25:00,
2013-07-14 12:30:00,74.2,70.1,30.16,SSW,206,0.0,9.0,87,0.00,,---,0.06,VWS V14.00,2013-07-14 16:30:00,
2013-07-14 12:35:00,74.2,69.8,30.16,SSW,206,1.0,9.0,86,0.00,,---,0.06,VWS V14.00,2013-07-14 16:35:00,
2013-07-14 12:40:00,74.2,69.8,30.16,SSW,201,0.0,1.0,86,0.00,,---,0.06,VWS V14.00,2013-07-14 16:40:00,
2013-07-14 12:45:00,74.2,70.1,30.16,WSW,239,2.0,3.0,87,0.00,,---,0.06,VWS V14.00,2013-07-14 16:45:00,
2013-07-14 12:50:00,74.0,69.9,30.16,South,172,0.0,5.0,87,0.01,,---,0.07,VWS V14.00,2013-07-14 16:50:00,
2013-07-14 12:55:00,73.7,69.9,30.16,SW,232,0.0,5.0,88,0.02,,---,0.08,VWS V14.00,2013-07-14 16:55:00,
2013-07-14 13:00:00,73.3,69.9,30.16,SSW,200,2.0,5.0,89,0.03,,---,0.09,VWS V14.00,2013-07-14 17:00:00,
2013-07-14 13:05:00,72.9,69.8,30.16,WNW,293,2.0,5.0,90,0.07,,---,0.13,VWS V14.00,2013-07-14 17:05:00,
2013-07-14 13:10:00,72.5,69.4,30.16,East,81,0.0,1.0,90,0.08,,---,0.14,VWS V14.00,2013-07-14 17:10:00,
2013-07-14 13:15:00,72.3,69.5,30.16,SW,215,1.0,2.0,91,0.08,,---,0.14,VWS V14.00,2013-07-14 17:15:00,
2013-07-14 13:20:00,72.1,69.7,30.16,SSE,149,1.0,2.0,92,0.09,,---,0.15,VWS V14.00,2013-07-14 17:20:00,
2013-07-14 13:25:00,71.9,69.4,30.16,WNW,302,1.0,4.0,92,0.09,,---,0.15,VWS V14.00,2013-07-14 17:25:00,
2013-07-14 13:30:00,72.0,69.9,30.16,West,277,0.0,4.0,93,0.09,,---,0.15,VWS V14.00,2013-07-14 17:30:00,
2013-07-14 13:35:00,72.6,70.8,30.15,South,187,0.0,4.0,94,0.09,,---,0.15,VWS V14.00,2013-07-14 17:35:00,
2013-07-14 13:40:00,72.8,71.0,30.15,WNW,283,0.0,3.0,94,0.09,,---,0.15,VWS V14.00,2013-07-14 17:40:00,
2013-07-14 13:45:00,73.0,71.2,30.15,West,277,0.0,6.0,94,0.09,,---,0.15,VWS V14.00,2013-07-14 17:45:00,
2013-07-14 13:50:00,73.2,71.1,30.15,NW,307,1.0,6.0,93,0.09,,---,0.15,VWS V14.00,2013-07-14 17:50:00,
2013-07-14 13:55:00,73.5,71.0,30.15,NNW,347,1.0,10.0,92,0.09,,---,0.15,VWS V14.00,2013-07-14 17:55:00,
2013-07-14 14:00:00,73.8,70.4,30.15,NW,325,4.0,11.0,89,0.09,,---,0.15,VWS V14.00,2013-07-14 18:00:00,
2013-07-14 14:05:00,74.2,70.4,30.15,South,187,0.0,11.0,88,0.09,,---,0.15,VWS V14.00,2013-07-14 18:05:00,
2013-07-14 14:10:00,74.5,70.7,30.15,SW,235,3.0,5.0,88,0.02,,---,0.15,VWS V14.00,2013-07-14 18:10:00,
2013-07-14 14:15:00,74.4,70.6,30.15,NW,305,0.0,5.0,88,0.02,,---,0.15,VWS V14.00,2013-07-14 18:15:00,
2013-07-14 14:20:00,74.5,71.1,30.15,SW,230,0.0,5.0,89,0.02,,---,0.15,VWS V14.00,2013-07-14 18:20:00,
2013-07-14 14:25:00,74.9,71.1,30.15,South,186,0.0,5.0,88,0.02,,---,0.15,VWS V14.00,2013-07-14 18:25:00,
2013-07-14 14:30:00,75.1,71.0,30.15,WSW,242,5.0,5.0,87,0.02,,---,0.15,VWS V14.00,2013-07-14 18:30:00,
2013-07-14 14:35:00,75.3,70.8,30.15,NNW,338,4.0,5.0,86,0.02,,---,0.15,VWS V14.00,2013-07-14 18:35:00,
2013-07-14 14:40:00,75.2,70.4,30.15,NNE,32,0.0,3.0,85,0.00,,---,0.15,VWS V14.00,2013-07-14 18:40:00,
2013-07-14 14:45:00,75.3,70.8,30.15,NNW,333,1.0,6.0,86,0.00,,---,0.15,VWS V14.00,2013-07-14 18:45:00,
2013-07-14 14:50:00,75.4,70.9,30.14,NE,35,0.0,6.0,86,0.00,,---,0.15,VWS V14.00,2013-07-14 18:50:00,
2013-07-14 14:55:00,75.4,70.9,30.15,SSW,209,0.0,6.0,86,0.00,,---,0.15,VWS V14.00,2013-07-14 18:55:00,
2013-07-14 15:00:00,75.2,70.0,30.14,NW,317,0.0,6.0,84,0.00,,---,0.15,VWS V14.00,2013-07-14 19:00:00,
2013-07-14 15:05:00,75.0,69.8,30.14,East,101,0.0,6.0,84,0.00,,---,0.15,VWS V14.00,2013-07-14 19:05:00,
2013-07-14 15:10:00,74.8,69.7,30.15,NE,56,0.0,1.0,84,0.00,,---,0.15,VWS V14.00,2013-07-14 19:10:00,
2013-07-14 15:15:00,74.6,69.4,30.15,NW,306,0.0,4.0,84,0.00,,---,0.15,VWS V14.00,2013-07-14 19:15:00,
2013-07-14 15:20:00,74.5,69.3,30.15,NNE,14,1.0,7.0,84,0.00,,---,0.15,VWS V14.00,2013-07-14 19:20:00,
2013-07-14 15:25:00,74.7,70.2,30.15,ESE,115,3.0,7.0,86,0.00,,---,0.15,VWS V14.00,2013-07-14 19:25:00,
2013-07-14 15:30:00,74.8,69.7,30.15,SE,129,0.0,9.0,84,0.00,,---,0.15,VWS V14.00,2013-07-14 19:30:00,
2013-07-14 15:35:00,74.8,70.0,30.15,NW,316,0.0,9.0,85,0.00,,---,0.15,VWS V14.00,2013-07-14 19:35:00,
2013-07-14 15:40:00,74.6,69.4,30.15,SE,132,0.0,9.0,84,0.00,,---,0.15,VWS V14.00,2013-07-14 19:40:00,
2013-07-14 15:45:00,74.1,69.7,30.15,WSW,248,1.0,9.0,86,0.01,,---,0.16,VWS V14.00,2013-07-14 19:45:00,
2013-07-14 15:50:00,73.8,69.3,30.16,North,355,0.0,9.0,86,0.01,,---,0.16,VWS V14.00,2013-07-14 19:50:00,
2013-07-14 15:55:00,73.3,69.2,30.15,WSW,238,0.0,9.0,87,0.01,,---,0.16,VWS V14.00,2013-07-14 19:55:00,
2013-07-14 16:00:00,73.2,69.4,30.16,NW,306,0.0,9.0,88,0.02,,---,0.17,VWS V14.00,2013-07-14 20:00:00,
2013-07-14 16:05:00,73.0,69.6,30.15,West,281,3.0,9.0,89,0.03,,---,0.18,VWS V14.00,2013-07-14 20:05:00,
2013-07-14 16:10:00,72.6,69.5,30.15,NNE,17,1.0,6.0,90,0.03,,---,0.18,VWS V14.00,2013-07-14 20:10:00,
2013-07-14 16:15:00,72.2,69.1,30.15,SSE,167,0.0,7.0,90,0.04,,---,0.19,VWS V14.00,2013-07-14 20:15:00,
2013-07-14 16:20:00,72.1,69.7,30.15,SW,228,0.0,9.0,92,0.04,,---,0.19,VWS V14.00,2013-07-14 20:20:00,
2013-07-14 16:25:00,72.1,69.7,30.15,NW,313,4.0,9.0,92,0.04,,---,0.19,VWS V14.00,2013-07-14 20:25:00,
2013-07-14 16:30:00,72.0,69.6,30.15,NW,313,0.0,9.0,92,0.04,,---,0.19,VWS V14.00,2013-07-14 20:30:00,
2013-07-14 16:35:00,72.0,69.9,30.15,SW,236,0.0,9.0,93,0.04,,---,0.19,VWS V14.00,2013-07-14 20:35:00,
2013-07-14 16:40:00,71.8,69.3,30.15,WNW,293,0.0,2.0,92,0.04,,---,0.19,VWS V14.00,2013-07-14 20:40:00,
2013-07-14 16:45:00,71.6,69.2,30.15,SW,216,0.0,5.0,92,0.04,,---,0.19,VWS V14.00,2013-07-14 20:45:00,
2013-07-14 16:50:00,71.3,68.9,30.15,SSW,198,0.0,6.0,92,0.05,,---,0.20,VWS V14.00,2013-07-14 20:50:00,
2013-07-14 16:55:00,71.1,68.7,30.16,NNW,340,5.0,14.0,92,0.06,,---,0.21,VWS V14.00,2013-07-14 20:55:00,
2013-07-14 17:00:00,70.9,68.8,30.16,NNW,333,7.0,14.0,93,0.06,,---,0.21,VWS V14.00,2013-07-14 21:00:00,
2013-07-14 17:05:00,70.8,68.7,30.16,NW,305,0.0,14.0,93,0.06,,---,0.21,VWS V14.00,2013-07-14 21:05:00,
2013-07-14 17:10:00,70.8,68.4,30.16,South,184,1.0,7.0,92,0.03,,---,0.21,VWS V14.00,2013-07-14 21:10:00,
2013-07-14 17:15:00,70.9,68.5,30.16,NNW,346,1.0,7.0,92,0.03,,---,0.21,VWS V14.00,2013-07-14 21:15:00,
2013-07-14 17:20:00,71.1,68.3,30.17,ESE,117,0.0,11.0,91,0.03,,---,0.21,VWS V14.00,2013-07-14 21:20:00,
2013-07-14 17:25:00,71.6,68.8,30.15,SE,140,1.0,11.0,91,0.03,,---,0.21,VWS V14.00,2013-07-14 21:25:00,
2013-07-14 17:30:00,71.9,68.5,30.16,North,11,2.0,11.0,89,0.03,,---,0.21,VWS V14.00,2013-07-14 21:30:00,
2013-07-14 17:35:00,72.1,68.0,30.16,WSW,244,3.0,11.0,87,0.03,,---,0.21,VWS V14.00,2013-07-14 21:35:00,
2013-07-14 17:40:00,72.0,67.6,30.15,ENE,67,4.0,11.0,86,0.02,,---,0.21,VWS V14.00,2013-07-14 21:40:00,
2013-07-14 17:45:00,71.9,67.5,30.15,West,264,0.0,11.0,86,0.02,,---,0.21,VWS V14.00,2013-07-14 21:45:00,
2013-07-14 17:50:00,71.5,66.8,30.16,South,170,3.0,11.0,85,0.02,,---,0.21,VWS V14.00,2013-07-14 21:50:00,
2013-07-14 17:55:00,71.3,66.9,30.16,East,79,0.0,12.0,86,0.02,,---,0.21,VWS V14.00,2013-07-14 21:55:00,
2013-07-14 18:00:00,71.1,67.0,30.15,South,172,0.0,12.0,87,0.02,,---,0.21,VWS V14.00,2013-07-14 22:00:00,
2013-07-14 18:05:00,70.8,66.1,30.15,South,186,2.0,12.0,85,0.02,,---,0.21,VWS V14.00,2013-07-14 22:05:00,
2013-07-14 18:10:00,70.9,66.5,30.15,NW,309,10.0,10.0,86,0.00,,---,0.21,VWS V14.00,2013-07-14 22:10:00,
2013-07-14 18:15:00,70.8,66.4,30.15,SW,214,3.0,10.0,86,0.00,,---,0.21,VWS V14.00,2013-07-14 22:15:00,
2013-07-14 18:20:00,70.7,66.7,30.15,SSW,194,0.0,10.0,87,0.00,,---,0.21,VWS V14.00,2013-07-14 22:20:00,
2013-07-14 18:25:00,70.7,67.0,30.16,SW,227,0.0,10.0,88,0.00,,---,0.21,VWS V14.00,2013-07-14 22:25:00,
2013-07-14 18:30:00,70.7,67.0,30.16,West,272,9.0,12.0,88,0.00,,---,0.21,VWS V14.00,2013-07-14 22:30:00,
2013-07-14 18:35:00,70.5,66.8,30.16,West,279,1.0,12.0,88,0.00,,---,0.21,VWS V14.00,2013-07-14 22:35:00,
2013-07-14 18:40:00,70.5,66.8,30.16,SW,216,1.0,3.0,88,0.00,,---,0.21,VWS V14.00,2013-07-14 22:40:00,
2013-07-14 18:45:00,70.4,66.7,30.16,SW,227,0.0,3.0,88,0.00,,---,0.21,VWS V14.00,2013-07-14 22:45:00,
2013-07-14 18:50:00,70.4,67.0,30.16,ENE,71,0.0,3.0,89,0.00,,---,0.21,VWS V14.00,2013-07-14 22:50:00,
2013-07-14 18:55:00,70.3,66.2,30.17,WNW,294,13.0,15.0,87,0.00,,---,0.21,VWS V14.00,2013-07-14 22:55:00,
2013-07-14 19:00:00,70.3,66.2,30.16,West,269,0.0,15.0,87,0.00,,---,0.21,VWS V14.00,2013-07-14 23:00:00,
2013-07-14 19:05:00,70.4,66.7,30.16,SW,217,3.0,15.0,88,0.00,,---,0.21,VWS V14.00,2013-07-14 23:05:00,
2013-07-14 19:10:00,70.3,66.9,30.17,SW,219,0.0,2.0,89,0.00,,---,0.21,VWS V14.00,2013-07-14 23:10:00,
2013-07-14 19:15:00,70.2,66.8,30.17,WNW,286,0.0,5.0,89,0.00,,---,0.21,VWS V14.00,2013-07-14 23:15:00,
2013-07-14 19:20:00,70.1,66.4,30.16,WNW,303,1.0,5.0,88,0.00,,---,0.21,VWS V14.00,2013-07-14 23:20:00,
2013-07-14 19:25:00,70.0,66.6,30.17,West,273,0.0,5.0,89,0.00,,---,0.21,VWS V14.00,2013-07-14 23:25:00,
2013-07-14 19:30:00,70.0,66.9,30.17,West,272,0.0,5.0,90,0.00,,---,0.21,VWS V14.00,2013-07-14 23:30:00,
2013-07-14 19:35:00,69.9,66.5,30.17,SW,219,3.0,5.0,89,0.00,,---,0.21,VWS V14.00,2013-07-14 23:35:00,
2013-07-14 19:40:00,69.9,66.8,30.17,SW,219,0.0,1.0,90,0.00,,---,0.21,VWS V14.00,2013-07-14 23:40:00,
2013-07-14 19:45:00,69.9,66.8,30.17,West,260,2.0,4.0,90,0.00,,---,0.21,VWS V14.00,2013-07-14 23:45:00,
2013-07-14 19:50:00,69.8,67.1,30.17,West,260,0.0,4.0,91,0.00,,---,0.21,VWS V14.00,2013-07-14 23:50:00,
2013-07-14 19:55:00,69.7,66.6,30.17,West,260,0.0,4.0,90,0.00,,---,0.21,VWS V14.00,2013-07-14 23:55:00,
2013-07-14 20:00:00,69.6,66.5,30.17,SSW,213,0.0,7.0,90,0.00,,---,0.21,VWS V14.00,2013-07-15 00:00:00,
2013-07-14 20:05:00,69.5,66.4,30.18,SW,228,0.0,7.0,90,0.00,,---,0.21,VWS V14.00,2013-07-15 00:05:00,
2013-07-14 20:10:00,69.4,66.3,30.18,WNW,286,0.0,4.0,90,0.00,,---,0.21,VWS V14.00,2013-07-15 00:10:00,
2013-07-14 20:15:00,69.4,66.3,30.18,WNW,292,1.0,4.0,90,0.00,,---,0.21,VWS V14.00,2013-07-15 00:15:00,
2013-07-14 20:20:00,69.3,65.9,30.18,SSE,158,1.0,4.0,89,0.00,,---,0.21,VWS V14.00,2013-07-15 00:20:00,
2013-07-14 20:25:00,69.4,66.3,30.18,WNW,297,3.0,4.0,90,0.00,,---,0.21,VWS V14.00,2013-07-15 00:25:00,
2013-07-14 20:30:00,69.4,66.0,30.18,NW,309,0.0,4.0,89,0.00,,---,0.21,VWS V14.00,2013-07-15 00:30:00,
2013-07-14 20:35:00,69.4,66.0,30.18,NW,310,0.0,4.0,89,0.00,,---,0.21,VWS V14.00,2013-07-15 00:35:00,
2013-07-14 20:40:00,69.4,65.7,30.19,NW,312,0.0,3.0,88,0.00,,---,0.21,VWS V14.00,2013-07-15 00:40:00,
2013-07-14 20:45:00,69.5,66.1,30.19,SW,227,0.0,6.0,89,0.00,,---,0.21,VWS V14.00,2013-07-15 00:45:00,
2013-07-14 20:50:00,69.5,66.4,30.19,SW,225,0.0,9.0,90,0.00,,---,0.21,VWS V14.00,2013-07-15 00:50:00,
2013-07-14 20:55:00,69.4,66.3,30.19,WSW,257,0.0,9.0,90,0.00,,---,0.21,VWS V14.00,2013-07-15 00:55:00,
2013-07-14 21:00:00,69.3,66.2,30.20,West,263,2.0,9.0,90,0.00,,---,0.21,VWS V14.00,2013-07-15 01:00:00,
2013-07-14 21:05:00,69.1,66.1,30.20,NNW,327,0.0,9.0,90,0.00,,---,0.21,VWS V14.00,2013-07-15 01:05:00,
2013-07-14 21:10:00,69.1,66.4,30.19,NNW,329,1.0,1.0,91,0.00,,---,0.21,VWS V14.00,2013-07-15 01:10:00,
2013-07-14 21:15:00,69.0,66.3,30.19,NW,306,2.0,2.0,91,0.00,,---,0.21,VWS V14.00,2013-07-15 01:15:00,
2013-07-14 21:20:00,68.8,66.1,30.20,WSW,249,0.0,5.0,91,0.00,,---,0.21,VWS V14.00,2013-07-15 01:20:00,
2013-07-14 21:25:00,68.8,66.1,30.19,SW,236,0.0,9.0,91,0.00,,---,0.21,VWS V14.00,2013-07-15 01:25:00,
2013-07-14 21:30:00,68.7,65.7,30.19,NW,314,0.0,10.0,90,0.00,,---,0.21,VWS V14.00,2013-07-15 01:30:00,
2013-07-14 21:35:00,68.6,65.9,30.20,NW,314,1.0,10.0,91,0.00,,---,0.21,VWS V14.00,2013-07-15 01:35:00,
2013-07-14 21:40:00,68.6,65.9,30.20,WNW,298,0.0,5.0,91,0.00,,---,0.21,VWS V14.00,2013-07-15 01:40:00,
2013-07-14 21:45:00,68.5,65.5,30.20,SSW,199,0.0,5.0,90,0.00,,---,0.21,VWS V14.00,2013-07-15 01:45:00,
2013-07-14 21:50:00,68.5,65.5,30.20,SSW,199,0.0,5.0,90,0.00,,---,0.21,VWS V14.00,2013-07-15 01:50:00,
2013-07-14 21:55:00,68.4,65.4,30.20,East,101,1.0,5.0,90,0.00,,---,0.21,VWS V14.00,2013-07-15 01:55:00,
2013-07-14 22:00:00,68.4,65.4,30.21,NW,308,2.0,10.0,90,0.00,,---,0.21,VWS V14.00,2013-07-15 02:00:00,
2013-07-14 22:05:00,68.5,65.5,30.21,NW,310,0.0,10.0,90,0.00,,---,0.21,VWS V14.00,2013-07-15 02:05:00,
2013-07-14 22:10:00,68.5,65.5,30.20,NW,309,1.0,3.0,90,0.00,,---,0.21,VWS V14.00,2013-07-15 02:10:00,
2013-07-14 22:15:00,68.5,65.8,30.20,NW,306,0.0,3.0,91,0.00,,---,0.21,VWS V14.00,2013-07-15 02:15:00,
2013-07-14 22:20:00,68.5,65.5,30.20,ENE,61,0.0,4.0,90,0.00,,---,0.21,VWS V14.00,2013-07-15 02:20:00,
2013-07-14 22:25:00,68.4,65.4,30.20,WNW,296,0.0,4.0,90,0.00,,---,0.21,VWS V14.00,2013-07-15 02:25:00,
2013-07-14 22:30:00,68.4,65.4,30.21,WSW,256,0.0,4.0,90,0.00,,---,0.21,VWS V14.00,2013-07-15 02:30:00,
2013-07-14 22:35:00,68.4,65.4,30.21,West,261,2.0,4.0,90,0.00,,---,0.21,VWS V14.00,2013-07-15 02:35:00,
2013-07-14 22:40:00,68.5,65.8,30.21,WNW,288,1.0,3.0,91,0.00,,---,0.21,VWS V14.00,2013-07-15 02:40:00,
2013-07-14 22:45:00,68.5,65.5,30.20,SW,232,3.0,5.0,90,0.00,,---,0.21,VWS V14.00,2013-07-15 02:45:00,
2013-07-14 22:50:00,68.6,65.6,30.21,WNW,290,2.0,5.0,90,0.00,,---,0.21,VWS V14.00,2013-07-15 02:50:00,
2013-07-14 22:55:00,68.6,65.6,30.21,West,270,0.0,6.0,90,0.00,,---,0.21,VWS V14.00,2013-07-15 02:55:00,
2013-07-14 23:00:00,68.6,65.6,30.21,NNW,333,5.0,6.0,90,0.00,,---,0.21,VWS V14.00,2013-07-15 03:00:00,
2013-07-14 23:05:00,68.7,65.7,30.21,NW,319,0.0,6.0,90,0.00,,---,0.21,VWS V14.00,2013-07-15 03:05:00,
2013-07-14 23:10:00,68.7,65.3,30.21,NW,314,0.0,3.0,89,0.00,,---,0.21,VWS V14.00,2013-07-15 03:10:00,
2013-07-14 23:15:00,68.8,65.4,30.21,NW,314,1.0,3.0,89,0.00,,---,0.21,VWS V14.00,2013-07-15 03:15:00,
2013-07-14 23:20:00,68.8,65.4,30.21,NW,318,1.0,3.0,89,0.00,,---,0.21,VWS V14.00,2013-07-15 03:20:00,
2013-07-14 23:25:00,68.8,65.8,30.20,NW,318,0.0,3.0,90,0.00,,---,0.21,VWS V14.00,2013-07-15 03:25:00,
2013-07-14 23:30:00,68.7,65.3,30.21,NNE,15,1.0,4.0,89,0.00,,---,0.21,VWS V14.00,2013-07-15 03:30:00,
2013-07-14 23:35:00,68.7,65.7,30.20,SW,236,0.0,5.0,90,0.00,,---,0.21,VWS V14.00,2013-07-15 03:35:00,
2013-07-14 23:40:00,68.6,65.6,30.20,WSW,238,0.0,2.0,90,0.00,,---,0.21,VWS V14.00,2013-07-15 03:40:00,
2013-07-14 23:45:00,68.5,65.5,30.20,WSW,244,0.0,4.0,90,0.00,,---,0.21,VWS V14.00,2013-07-15 03:45:00,
2013-07-14 23:50:00,68.5,65.5,30.21,SW,221,0.0,7.0,90,0.00,,---,0.21,VWS V14.00,2013-07-15 03:50:00,
2013-07-14 23:55:00,68.5,65.5,30.21,WSW,249,1.0,7.0,90,0.00,,---,0.21,VWS V14.00,2013-07-15 03:55:00,